Volver al catálogo

COSMOS 2491 DEB

LostPO
NORAD 44994·DEBRIS·🇷🇺 Russia

Lanzado Dec 25, 2013 desde Plesetsk Cosmodrome

Loading…

Próximos Pases (próximas 24 horas)

TLE

ObsoletoSource: Space-Track

Época: Jan 30, 2020, 04:03 UTC

1 44994U 13076Q   20030.16900591 -.00000557  00000-0 -31368-2 0  9995
2 44994  82.4772 180.8201 0108452  36.3094 324.5293 12.61527065  2822

Sigue COSMOS 2491 DEB en tiempo real con AllMySat

Download on the App Store